Year,Month,Day,Hour,Minute,Value (Times are PST for temperature in C)
2015,08,17,00,00,13.30
2015,08,17,00,01,13.30
2015,08,17,00,02,13.30
2015,08,17,00,03,13.30
2015,08,17,00,04,13.30
2015,08,17,00,05,13.30
2015,08,17,00,06,13.20
2015,08,17,00,07,13.20
2015,08,17,00,08,13.20
2015,08,17,00,09,13.20
2015,08,17,00,10,13.20
2015,08,17,00,11,13.20
2015,08,17,00,12,13.20
2015,08,17,00,13,13.10
2015,08,17,00,14,13.10
2015,08,17,00,15,13.10
2015,08,17,00,16,13.10
2015,08,17,00,17,13.10
2015,08,17,00,18,13.10
2015,08,17,00,19,13.20
2015,08,17,00,20,13.20
2015,08,17,00,21,13.20
2015,08,17,00,22,13.20
2015,08,17,00,23,13.20
2015,08,17,00,24,13.20
2015,08,17,00,25,13.20
2015,08,17,00,26,13.20
2015,08,17,00,27,13.20
2015,08,17,00,28,13.20
2015,08,17,00,29,13.20
2015,08,17,00,30,13.20
2015,08,17,00,31,13.20
2015,08,17,00,32,13.20
2015,08,17,00,33,13.10
2015,08,17,00,34,13.10
2015,08,17,00,35,13.10
2015,08,17,00,36,13.10
2015,08,17,00,37,13.10
2015,08,17,00,38,13.10
2015,08,17,00,39,13.10
2015,08,17,00,40,13.10
2015,08,17,00,41,13.10
2015,08,17,00,42,13.00
2015,08,17,00,43,13.00
2015,08,17,00,44,13.00
2015,08,17,00,45,12.90
2015,08,17,00,46,12.90
2015,08,17,00,47,12.90
2015,08,17,00,48,12.90
2015,08,17,00,49,12.80
2015,08,17,00,50,12.80
2015,08,17,00,51,12.80
2015,08,17,00,52,12.80
2015,08,17,00,53,12.80
2015,08,17,00,54,12.80
2015,08,17,00,55,12.80
2015,08,17,00,56,12.80
2015,08,17,00,57,12.80
2015,08,17,00,58,12.80
2015,08,17,00,59,12.80
2015,08,17,01,00,12.80
2015,08,17,01,01,12.80
2015,08,17,01,02,12.80
2015,08,17,01,03,12.80
2015,08,17,01,04,12.80
2015,08,17,01,05,12.80
2015,08,17,01,06,12.80
2015,08,17,01,07,12.80
2015,08,17,01,08,12.80
2015,08,17,01,09,12.80
2015,08,17,01,10,12.80
2015,08,17,01,11,12.70
2015,08,17,01,12,12.70
2015,08,17,01,13,12.70
2015,08,17,01,14,12.70
2015,08,17,01,15,12.70
2015,08,17,01,16,12.70
2015,08,17,01,17,12.60
2015,08,17,01,18,12.60
2015,08,17,01,19,12.60
2015,08,17,01,20,12.60
2015,08,17,01,21,12.60
2015,08,17,01,22,12.50
2015,08,17,01,23,12.50
2015,08,17,01,24,12.50
2015,08,17,01,25,12.50
2015,08,17,01,26,12.50
2015,08,17,01,27,12.40
2015,08,17,01,28,12.40
2015,08,17,01,29,12.40
2015,08,17,01,30,12.40
2015,08,17,01,31,12.40
2015,08,17,01,32,12.40
2015,08,17,01,33,12.40
2015,08,17,01,34,12.40
2015,08,17,01,35,12.40
2015,08,17,01,36,12.40
2015,08,17,01,37,12.30
2015,08,17,01,38,12.30
2015,08,17,01,39,12.30
2015,08,17,01,40,12.30
2015,08,17,01,41,12.30
2015,08,17,01,42,12.30
2015,08,17,01,43,12.30
2015,08,17,01,44,12.30
2015,08,17,01,45,12.30
2015,08,17,01,46,12.30
2015,08,17,01,47,12.30
2015,08,17,01,48,12.30
2015,08,17,01,49,12.30
2015,08,17,01,50,12.20
2015,08,17,01,51,12.20
2015,08,17,01,52,12.20
2015,08,17,01,53,12.20
2015,08,17,01,54,12.20
2015,08,17,01,55,12.20
2015,08,17,01,56,12.10
2015,08,17,01,57,12.10
2015,08,17,01,58,12.10
2015,08,17,01,59,12.10
2015,08,17,02,00,12.10
2015,08,17,02,01,12.00
2015,08,17,02,02,12.00
2015,08,17,02,03,12.00
2015,08,17,02,04,12.00
2015,08,17,02,05,11.90
2015,08,17,02,06,11.90
2015,08,17,02,07,11.90
2015,08,17,02,08,11.90
2015,08,17,02,09,11.90
2015,08,17,02,10,11.90
2015,08,17,02,11,11.90
2015,08,17,02,12,11.80
2015,08,17,02,13,11.80
2015,08,17,02,14,11.80
2015,08,17,02,15,11.80
2015,08,17,02,16,11.80
2015,08,17,02,17,11.80
2015,08,17,02,18,11.80
2015,08,17,02,19,11.80
2015,08,17,02,20,11.80
2015,08,17,02,21,11.80
2015,08,17,02,22,11.80
2015,08,17,02,23,11.80
2015,08,17,02,24,11.80
2015,08,17,02,25,11.80
2015,08,17,02,26,11.80
2015,08,17,02,27,11.80
2015,08,17,02,28,11.80
2015,08,17,02,29,11.80
2015,08,17,02,30,11.80
2015,08,17,02,31,11.80
2015,08,17,02,32,11.80
2015,08,17,02,33,11.70
2015,08,17,02,34,11.70
2015,08,17,02,35,11.70
2015,08,17,02,36,11.70
2015,08,17,02,37,11.70
2015,08,17,02,38,11.70
2015,08,17,02,39,11.70
2015,08,17,02,40,11.60
2015,08,17,02,41,11.60
2015,08,17,02,42,11.60
2015,08,17,02,43,11.60
2015,08,17,02,44,11.60
2015,08,17,02,45,11.60
2015,08,17,02,46,11.60
2015,08,17,02,47,11.60
2015,08,17,02,48,11.60
2015,08,17,02,49,11.50
2015,08,17,02,50,11.40
2015,08,17,02,51,11.40
2015,08,17,02,52,11.40
2015,08,17,02,53,11.40
2015,08,17,02,54,11.40
2015,08,17,02,55,11.40
2015,08,17,02,56,11.40
2015,08,17,02,57,11.40
2015,08,17,02,58,11.40
2015,08,17,02,59,11.40
2015,08,17,03,00,11.30
2015,08,17,03,01,11.30
2015,08,17,03,02,11.30
2015,08,17,03,03,11.30
2015,08,17,03,04,11.30
2015,08,17,03,05,11.40
2015,08,17,03,06,11.40
2015,08,17,03,07,11.40
2015,08,17,03,08,11.40
2015,08,17,03,09,11.40
2015,08,17,03,10,11.40
2015,08,17,03,11,11.40
2015,08,17,03,12,11.40
2015,08,17,03,13,11.40
2015,08,17,03,14,11.40
2015,08,17,03,15,11.40
2015,08,17,03,16,11.40
2015,08,17,03,17,11.40
2015,08,17,03,18,11.40
2015,08,17,03,19,11.30
2015,08,17,03,20,11.30
2015,08,17,03,21,11.30
2015,08,17,03,22,11.30
2015,08,17,03,23,11.30
2015,08,17,03,24,11.30
2015,08,17,03,25,11.30
2015,08,17,03,26,11.30
2015,08,17,03,27,11.30
2015,08,17,03,28,11.30
2015,08,17,03,29,11.30
2015,08,17,03,30,11.30
2015,08,17,03,31,11.30
2015,08,17,03,32,11.20
2015,08,17,03,33,11.20
2015,08,17,03,34,11.20
2015,08,17,03,35,11.20
2015,08,17,03,36,11.20
2015,08,17,03,37,11.10
2015,08,17,03,38,11.10
2015,08,17,03,39,11.10
2015,08,17,03,40,11.10
2015,08,17,03,41,11.10
2015,08,17,03,42,11.10
2015,08,17,03,43,11.10
2015,08,17,03,44,11.10
2015,08,17,03,45,11.10
2015,08,17,03,46,11.10
2015,08,17,03,47,11.10
2015,08,17,03,48,11.10
2015,08,17,03,49,11.10
2015,08,17,03,50,11.10
2015,08,17,03,51,11.10
2015,08,17,03,52,11.10
2015,08,17,03,53,11.10
2015,08,17,03,54,11.10
2015,08,17,03,55,11.10
2015,08,17,03,56,11.10
2015,08,17,03,57,11.10
2015,08,17,03,58,11.10
2015,08,17,03,59,11.10
2015,08,17,04,00,11.10
2015,08,17,04,01,11.10
2015,08,17,04,02,11.10
2015,08,17,04,03,11.10
2015,08,17,04,04,11.10
2015,08,17,04,05,11.10
2015,08,17,04,06,11.10
2015,08,17,04,07,11.10
2015,08,17,04,08,11.10
2015,08,17,04,09,11.10
2015,08,17,04,10,11.10
2015,08,17,04,11,11.10
2015,08,17,04,12,11.00
2015,08,17,04,13,10.90
2015,08,17,04,14,10.90
2015,08,17,04,15,10.90
2015,08,17,04,16,10.90
2015,08,17,04,17,10.90
2015,08,17,04,18,10.90
2015,08,17,04,19,10.90
2015,08,17,04,20,10.90
2015,08,17,04,21,10.90
2015,08,17,04,22,10.90
2015,08,17,04,23,10.90
2015,08,17,04,24,10.90
2015,08,17,04,25,10.90
2015,08,17,04,26,10.90
2015,08,17,04,27,10.90
2015,08,17,04,28,10.90
2015,08,17,04,29,10.90
2015,08,17,04,30,10.80
2015,08,17,04,31,10.80
2015,08,17,04,32,10.80
2015,08,17,04,33,10.80
2015,08,17,04,34,10.80
2015,08,17,04,35,10.80
2015,08,17,04,36,10.70
2015,08,17,04,37,10.70
2015,08,17,04,38,10.70
2015,08,17,04,39,10.70
2015,08,17,04,40,10.70
2015,08,17,04,41,10.60
2015,08,17,04,42,10.60
2015,08,17,04,43,10.60
2015,08,17,04,44,10.60
2015,08,17,04,45,10.60
2015,08,17,04,46,10.60
2015,08,17,04,47,10.60
2015,08,17,04,48,10.60
2015,08,17,04,49,10.60
2015,08,17,04,50,10.60
2015,08,17,04,51,10.60
2015,08,17,04,52,10.60
2015,08,17,04,53,10.60
2015,08,17,04,54,10.60
2015,08,17,04,55,10.60
2015,08,17,04,56,10.60
2015,08,17,04,57,10.50
2015,08,17,04,58,10.40
2015,08,17,04,59,10.40
2015,08,17,05,00,10.40
2015,08,17,05,01,10.40
2015,08,17,05,02,10.40
2015,08,17,05,03,10.40
2015,08,17,05,04,10.40
2015,08,17,05,05,10.40
2015,08,17,05,06,10.40
2015,08,17,05,07,10.40
2015,08,17,05,08,10.40
2015,08,17,05,09,10.50
2015,08,17,05,10,10.60
2015,08,17,05,11,10.60
2015,08,17,05,12,10.60
2015,08,17,05,13,10.60
2015,08,17,05,14,10.60
2015,08,17,05,15,10.60
2015,08,17,05,16,10.60
2015,08,17,05,17,10.60
2015,08,17,05,18,10.60
2015,08,17,05,19,10.60
2015,08,17,05,20,10.60
2015,08,17,05,21,10.60
2015,08,17,05,22,10.60
2015,08,17,05,23,10.60
2015,08,17,05,24,10.60
2015,08,17,05,25,10.60
2015,08,17,05,26,10.60
2015,08,17,05,27,10.50
2015,08,17,05,28,10.40
2015,08,17,05,29,10.40
2015,08,17,05,30,10.40
2015,08,17,05,31,10.40
2015,08,17,05,32,10.40
2015,08,17,05,33,10.40
2015,08,17,05,34,10.40
2015,08,17,05,35,10.40
2015,08,17,05,36,10.40
2015,08,17,05,37,10.40
2015,08,17,05,38,10.40
2015,08,17,05,39,10.40
2015,08,17,05,40,10.40
2015,08,17,05,41,10.40
2015,08,17,05,42,10.40
2015,08,17,05,43,10.40
2015,08,17,05,44,10.40
2015,08,17,05,45,10.40
2015,08,17,05,46,10.40
2015,08,17,05,47,10.40
2015,08,17,05,48,10.40
2015,08,17,05,49,10.40
2015,08,17,05,50,10.40
2015,08,17,05,51,10.30
2015,08,17,05,52,10.30
2015,08,17,05,53,10.30
2015,08,17,05,54,10.30
2015,08,17,05,55,10.20
2015,08,17,05,56,10.20
2015,08,17,05,57,10.20
2015,08,17,05,58,10.20
2015,08,17,05,59,10.10
2015,08,17,06,00,10.10
2015,08,17,06,01,10.10
2015,08,17,06,02,10.10
2015,08,17,06,03,10.10
2015,08,17,06,04,10.10
2015,08,17,06,05,10.10
2015,08,17,06,06,10.10
2015,08,17,06,07,10.10
2015,08,17,06,08,10.10
2015,08,17,06,09,10.10
2015,08,17,06,10,10.10
2015,08,17,06,11,10.10
2015,08,17,06,12,10.10
2015,08,17,06,13,10.10
2015,08,17,06,14,10.10
2015,08,17,06,15,10.10
2015,08,17,06,16,10.10
2015,08,17,06,17,10.10
2015,08,17,06,18,10.10
2015,08,17,06,19,10.10
2015,08,17,06,20,10.10
2015,08,17,06,21,10.10
2015,08,17,06,22,10.10
2015,08,17,06,23,10.20
2015,08,17,06,24,10.20
2015,08,17,06,25,10.20
2015,08,17,06,26,10.20
2015,08,17,06,27,10.20
2015,08,17,06,28,10.20
2015,08,17,06,29,10.10
2015,08,17,06,30,10.10
2015,08,17,06,31,10.10
2015,08,17,06,32,10.10
2015,08,17,06,33,10.10
2015,08,17,06,34,10.10
2015,08,17,06,35,10.10
2015,08,17,06,36,10.10
2015,08,17,06,37,10.10
2015,08,17,06,38,10.10
2015,08,17,06,39,10.10
2015,08,17,06,40,10.10
2015,08,17,06,41,10.10
2015,08,17,06,42,10.10
2015,08,17,06,43,10.10
2015,08,17,06,44,10.10
2015,08,17,06,45,10.10
2015,08,17,06,46,10.10
2015,08,17,06,47,10.20
2015,08,17,06,48,10.20
2015,08,17,06,49,10.20
2015,08,17,06,50,10.20
2015,08,17,06,51,10.20
2015,08,17,06,52,10.20
2015,08,17,06,53,10.20
2015,08,17,06,54,10.20
2015,08,17,06,55,10.30
2015,08,17,06,56,10.30
2015,08,17,06,57,10.40
2015,08,17,06,58,10.40
2015,08,17,06,59,10.40
2015,08,17,07,00,10.50
2015,08,17,07,01,10.60
2015,08,17,07,02,10.60
2015,08,17,07,03,10.60
2015,08,17,07,04,10.70
2015,08,17,07,05,10.70
2015,08,17,07,06,10.80
2015,08,17,07,07,10.80
2015,08,17,07,08,10.90
2015,08,17,07,09,10.90
2015,08,17,07,10,11.00
2015,08,17,07,11,11.10
2015,08,17,07,12,11.10
2015,08,17,07,13,11.20
2015,08,17,07,14,11.30
2015,08,17,07,15,11.40
2015,08,17,07,16,11.40
2015,08,17,07,17,11.40
2015,08,17,07,18,11.40
2015,08,17,07,19,11.40
2015,08,17,07,20,11.50
2015,08,17,07,21,11.60
2015,08,17,07,22,11.60
2015,08,17,07,23,11.60
2015,08,17,07,24,11.70
2015,08,17,07,25,11.80
2015,08,17,07,26,11.80
2015,08,17,07,27,12.00
2015,08,17,07,28,12.10
2015,08,17,07,29,12.20
2015,08,17,07,30,12.30
2015,08,17,07,31,12.50
2015,08,17,07,32,12.60
2015,08,17,07,33,12.70
2015,08,17,07,34,12.80
2015,08,17,07,35,13.00
2015,08,17,07,36,13.10
2015,08,17,07,37,13.10
2015,08,17,07,38,13.20
2015,08,17,07,39,13.30
2015,08,17,07,40,13.30
2015,08,17,07,41,13.40
2015,08,17,07,42,13.40
2015,08,17,07,43,13.50
2015,08,17,07,44,13.60
2015,08,17,07,45,13.60
2015,08,17,07,46,13.70
2015,08,17,07,47,13.80
2015,08,17,07,48,13.90
2015,08,17,07,49,14.00
2015,08,17,07,50,14.00
2015,08,17,07,51,14.00
2015,08,17,07,52,14.10
2015,08,17,07,53,14.10
2015,08,17,07,54,14.10
2015,08,17,07,55,14.20
2015,08,17,07,56,14.20
2015,08,17,07,57,14.40
2015,08,17,07,58,14.50
2015,08,17,07,59,14.60
2015,08,17,08,00,14.70
2015,08,17,08,01,14.90
2015,08,17,08,02,15.00
2015,08,17,08,03,15.10
2015,08,17,08,04,15.20
2015,08,17,08,05,15.30
2015,08,17,08,06,15.40
2015,08,17,08,07,15.60
2015,08,17,08,08,15.70
2015,08,17,08,09,15.90
2015,08,17,08,10,15.90
2015,08,17,08,11,16.10
2015,08,17,08,12,16.10
2015,08,17,08,13,16.20
2015,08,17,08,14,16.30
2015,08,17,08,15,16.30
2015,08,17,08,16,16.40
2015,08,17,08,17,16.50
2015,08,17,08,18,16.60
2015,08,17,08,19,16.70
2015,08,17,08,20,16.70
2015,08,17,08,21,16.80
2015,08,17,08,22,16.90
2015,08,17,08,23,16.90
2015,08,17,08,24,16.90
2015,08,17,08,25,17.00
2015,08,17,08,26,17.10
2015,08,17,08,27,17.20
2015,08,17,08,28,17.30
2015,08,17,08,29,17.30
2015,08,17,08,30,17.30
2015,08,17,08,31,17.40
2015,08,17,08,32,17.50
2015,08,17,08,33,17.60
2015,08,17,08,34,17.70
2015,08,17,08,35,17.80
2015,08,17,08,36,17.90
2015,08,17,08,37,18.00
2015,08,17,08,38,18.10
2015,08,17,08,39,18.20
2015,08,17,08,40,18.30
2015,08,17,08,41,18.40
2015,08,17,08,42,18.40
2015,08,17,08,43,18.50
2015,08,17,08,44,18.60
2015,08,17,08,45,18.70
2015,08,17,08,46,18.70
2015,08,17,08,47,18.70
2015,08,17,08,48,18.80
2015,08,17,08,49,18.90
2015,08,17,08,50,18.90
2015,08,17,08,51,19.10
2015,08,17,08,52,19.20
2015,08,17,08,53,19.30
2015,08,17,08,54,19.40
2015,08,17,08,55,19.50
2015,08,17,08,56,19.60
2015,08,17,08,57,19.70
2015,08,17,08,58,19.70
2015,08,17,08,59,19.70
2015,08,17,09,00,19.70
2015,08,17,09,01,19.70
2015,08,17,09,02,19.70
2015,08,17,09,03,19.80
2015,08,17,09,04,19.90
2015,08,17,09,05,19.90
2015,08,17,09,06,19.90
2015,08,17,09,07,19.90
2015,08,17,09,08,19.90
2015,08,17,09,09,20.10
2015,08,17,09,10,20.10
2015,08,17,09,11,20.10
2015,08,17,09,12,20.20
2015,08,17,09,13,20.20
2015,08,17,09,14,20.20
2015,08,17,09,15,20.20
2015,08,17,09,16,20.20
2015,08,17,09,17,20.20
2015,08,17,09,18,20.20
2015,08,17,09,19,20.20
2015,08,17,09,20,20.20
2015,08,17,09,21,20.20
2015,08,17,09,22,20.20
2015,08,17,09,23,20.20
2015,08,17,09,24,20.20
2015,08,17,09,25,20.20
2015,08,17,09,26,20.30
2015,08,17,09,27,20.20
2015,08,17,09,28,20.20
2015,08,17,09,29,20.30
2015,08,17,09,30,20.30
2015,08,17,09,31,20.20
2015,08,17,09,32,20.30
2015,08,17,09,33,20.30
2015,08,17,09,34,20.30
2015,08,17,09,35,20.40
2015,08,17,09,36,20.40
2015,08,17,09,37,20.40
2015,08,17,09,38,20.50
2015,08,17,09,39,20.50
2015,08,17,09,40,20.50
2015,08,17,09,41,20.50
2015,08,17,09,42,20.50
2015,08,17,09,43,20.60
2015,08,17,09,44,20.60
2015,08,17,09,45,20.50
2015,08,17,09,46,20.60
2015,08,17,09,47,20.60
2015,08,17,09,48,20.50
2015,08,17,09,49,20.50
2015,08,17,09,50,20.40
2015,08,17,09,51,20.40
2015,08,17,09,52,20.30
2015,08,17,09,53,20.20
2015,08,17,09,54,20.20
2015,08,17,09,55,20.20
2015,08,17,09,56,20.20
2015,08,17,09,57,20.20
2015,08,17,09,58,20.20
2015,08,17,09,59,20.30
2015,08,17,10,00,20.30
2015,08,17,10,01,20.30
2015,08,17,10,02,20.50
2015,08,17,10,03,20.50
2015,08,17,10,04,20.70
2015,08,17,10,05,20.80
2015,08,17,10,06,20.90
2015,08,17,10,07,20.80
2015,08,17,10,08,20.70
2015,08,17,10,09,20.50
2015,08,17,10,10,20.50
2015,08,17,10,11,20.30
2015,08,17,10,12,20.20
2015,08,17,10,13,20.20
2015,08,17,10,14,20.20
2015,08,17,10,15,20.40
2015,08,17,10,16,20.50
2015,08,17,10,17,20.60
2015,08,17,10,18,20.70
2015,08,17,10,19,20.80
2015,08,17,10,20,20.90
2015,08,17,10,21,21.00
2015,08,17,10,22,20.90
2015,08,17,10,23,20.90
2015,08,17,10,24,20.80
2015,08,17,10,25,20.70
2015,08,17,10,26,20.60
2015,08,17,10,27,20.50
2015,08,17,10,28,20.50
2015,08,17,10,29,20.50
2015,08,17,10,30,20.60
2015,08,17,10,31,20.80
2015,08,17,10,32,20.90
2015,08,17,10,33,20.90
2015,08,17,10,34,20.90
2015,08,17,10,35,20.90
2015,08,17,10,36,20.90
2015,08,17,10,37,21.00
2015,08,17,10,38,21.10
2015,08,17,10,39,21.20
2015,08,17,10,40,21.30
2015,08,17,10,41,21.30
2015,08,17,10,42,21.30
2015,08,17,10,43,21.30
2015,08,17,10,44,21.30
2015,08,17,10,45,21.30
2015,08,17,10,46,21.10
2015,08,17,10,47,21.10
2015,08,17,10,48,21.20
2015,08,17,10,49,21.20
2015,08,17,10,50,21.30
2015,08,17,10,51,21.30
2015,08,17,10,52,21.30
2015,08,17,10,53,21.30
2015,08,17,10,54,21.30
2015,08,17,10,55,21.30
2015,08,17,10,56,21.20
2015,08,17,10,57,21.30
2015,08,17,10,58,21.30
2015,08,17,10,59,21.30
2015,08,17,11,00,21.30
2015,08,17,11,01,21.30
2015,08,17,11,02,21.30
2015,08,17,11,03,21.30
2015,08,17,11,04,21.30
2015,08,17,11,05,21.30
2015,08,17,11,06,21.40
2015,08,17,11,07,21.40
2015,08,17,11,08,21.50
2015,08,17,11,09,21.60
2015,08,17,11,10,21.60
2015,08,17,11,11,21.60
2015,08,17,11,12,21.70
2015,08,17,11,13,21.90
2015,08,17,11,14,21.90
2015,08,17,11,15,21.90
2015,08,17,11,16,21.90
2015,08,17,11,17,21.90
2015,08,17,11,18,21.90
2015,08,17,11,19,21.90
2015,08,17,11,20,21.80
2015,08,17,11,21,21.80
2015,08,17,11,22,21.80
2015,08,17,11,23,21.80
2015,08,17,11,24,21.80
2015,08,17,11,25,21.70
2015,08,17,11,26,21.60
2015,08,17,11,27,21.60
2015,08,17,11,28,21.70
2015,08,17,11,29,21.60
2015,08,17,11,30,21.60
2015,08,17,11,31,21.70
2015,08,17,11,32,21.70
2015,08,17,11,33,21.60
2015,08,17,11,34,21.60
2015,08,17,11,35,21.60
2015,08,17,11,36,21.60
2015,08,17,11,37,21.60
2015,08,17,11,38,21.60
2015,08,17,11,39,21.60
2015,08,17,11,40,21.60
2015,08,17,11,41,21.60
2015,08,17,11,42,21.70
2015,08,17,11,43,21.80
2015,08,17,11,44,21.90
2015,08,17,11,45,21.80
2015,08,17,11,46,21.80
2015,08,17,11,47,21.80
2015,08,17,11,48,21.80
2015,08,17,11,49,21.80
2015,08,17,11,50,21.80
2015,08,17,11,51,21.80
2015,08,17,11,52,21.80
2015,08,17,11,53,21.70
2015,08,17,11,54,21.60
2015,08,17,11,55,21.60
2015,08,17,11,56,21.60
2015,08,17,11,57,21.60
2015,08,17,11,58,21.60
2015,08,17,11,59,21.60
2015,08,17,12,00,21.60
2015,08,17,12,01,21.60
2015,08,17,12,02,21.80
2015,08,17,12,03,22.00
2015,08,17,12,04,22.20
2015,08,17,12,05,22.30
2015,08,17,12,06,22.50
2015,08,17,12,07,22.60
2015,08,17,12,08,22.60
2015,08,17,12,09,22.70
2015,08,17,12,10,22.90
2015,08,17,12,11,22.90
2015,08,17,12,12,22.90
2015,08,17,12,13,22.90
2015,08,17,12,14,23.00
2015,08,17,12,15,23.10
2015,08,17,12,16,23.00
2015,08,17,12,17,22.90
2015,08,17,12,18,22.80
2015,08,17,12,19,22.70
2015,08,17,12,20,22.50
2015,08,17,12,21,22.50
2015,08,17,12,22,22.40
2015,08,17,12,23,22.30
2015,08,17,12,24,22.30
2015,08,17,12,25,22.40
2015,08,17,12,26,22.50
2015,08,17,12,27,22.60
2015,08,17,12,28,22.70
2015,08,17,12,29,22.70
2015,08,17,12,30,22.70
2015,08,17,12,31,22.80
2015,08,17,12,32,22.70
2015,08,17,12,33,22.80
2015,08,17,12,34,22.90
2015,08,17,12,35,22.90
2015,08,17,12,36,22.90
2015,08,17,12,37,22.90
2015,08,17,12,38,22.80
2015,08,17,12,39,22.70
2015,08,17,12,40,22.70
2015,08,17,12,41,22.80
2015,08,17,12,42,22.90
2015,08,17,12,43,23.00
2015,08,17,12,44,23.10
2015,08,17,12,45,23.20
2015,08,17,12,46,23.20
2015,08,17,12,47,23.30
2015,08,17,12,48,23.50
2015,08,17,12,49,23.70
2015,08,17,12,50,23.80
2015,08,17,12,51,23.80
2015,08,17,12,52,23.80
2015,08,17,12,53,23.80
2015,08,17,12,54,23.70
2015,08,17,12,55,23.70
2015,08,17,12,56,23.70
2015,08,17,12,57,23.70
2015,08,17,12,58,23.70
2015,08,17,12,59,23.70
2015,08,17,13,00,23.70
2015,08,17,13,01,23.70
2015,08,17,13,02,23.60
2015,08,17,13,03,23.50
2015,08,17,13,04,23.60
2015,08,17,13,05,23.50
2015,08,17,13,06,23.60
2015,08,17,13,07,23.50
2015,08,17,13,08,23.40
2015,08,17,13,09,23.40
2015,08,17,13,10,23.30
2015,08,17,13,11,23.20
2015,08,17,13,12,23.20
2015,08,17,13,13,23.30
2015,08,17,13,14,23.20
2015,08,17,13,15,23.10
2015,08,17,13,16,23.10
2015,08,17,13,17,23.10
2015,08,17,13,18,23.20
2015,08,17,13,19,23.20
2015,08,17,13,20,23.30
2015,08,17,13,21,23.30
2015,08,17,13,22,23.30
2015,08,17,13,23,23.40
2015,08,17,13,24,23.40
2015,08,17,13,25,23.40
2015,08,17,13,26,23.50
2015,08,17,13,27,23.60
2015,08,17,13,28,23.70
2015,08,17,13,29,23.70
2015,08,17,13,30,23.70
2015,08,17,13,31,23.70
2015,08,17,13,32,23.70
2015,08,17,13,33,23.90
2015,08,17,13,34,24.00
2015,08,17,13,35,24.10
2015,08,17,13,36,24.10
2015,08,17,13,37,24.20
2015,08,17,13,38,24.30
2015,08,17,13,39,24.40
2015,08,17,13,40,24.50
2015,08,17,13,41,24.60
2015,08,17,13,42,24.60
2015,08,17,13,43,24.50
2015,08,17,13,44,24.50
2015,08,17,13,45,24.40
2015,08,17,13,46,24.30
2015,08,17,13,47,24.30
2015,08,17,13,48,24.30
2015,08,17,13,49,24.30
2015,08,17,13,50,24.40
2015,08,17,13,51,24.40
2015,08,17,13,52,24.50
2015,08,17,13,53,24.70
2015,08,17,13,54,24.70
2015,08,17,13,55,24.70
2015,08,17,13,56,24.70
2015,08,17,13,57,24.50
2015,08,17,13,58,24.40
2015,08,17,13,59,24.20
2015,08,17,14,00,24.20
2015,08,17,14,01,24.20
2015,08,17,14,02,24.20
2015,08,17,14,03,24.30
2015,08,17,14,04,24.30
2015,08,17,14,05,24.30
2015,08,17,14,06,24.30
2015,08,17,14,07,24.10
2015,08,17,14,08,24.10
2015,08,17,14,09,24.00
2015,08,17,14,10,23.90
2015,08,17,14,11,23.80
2015,08,17,14,12,23.70
2015,08,17,14,13,23.70
2015,08,17,14,14,23.70
2015,08,17,14,15,23.60
2015,08,17,14,16,23.60
2015,08,17,14,17,23.70
2015,08,17,14,18,23.80
2015,08,17,14,19,23.80
2015,08,17,14,20,23.90
2015,08,17,14,21,24.10
2015,08,17,14,22,24.20
2015,08,17,14,23,24.40
2015,08,17,14,24,24.40
2015,08,17,14,25,24.50
2015,08,17,14,26,24.70
2015,08,17,14,27,24.70
2015,08,17,14,28,24.80
2015,08,17,14,29,24.80
2015,08,17,14,30,24.80
2015,08,17,14,31,24.90
2015,08,17,14,32,24.80
2015,08,17,14,33,24.80
2015,08,17,14,34,24.70
2015,08,17,14,35,24.60
2015,08,17,14,36,24.70
2015,08,17,14,37,24.80
2015,08,17,14,38,24.90
2015,08,17,14,39,25.00
2015,08,17,14,40,25.00
2015,08,17,14,41,25.10
2015,08,17,14,42,25.20
2015,08,17,14,43,25.20
2015,08,17,14,44,25.20
2015,08,17,14,45,25.20
2015,08,17,14,46,25.20
2015,08,17,14,47,25.20
2015,08,17,14,48,25.10
2015,08,17,14,49,25.10
2015,08,17,14,50,25.20
2015,08,17,14,51,25.30
2015,08,17,14,52,25.40
2015,08,17,14,53,25.40
2015,08,17,14,54,25.30
2015,08,17,14,55,25.30
2015,08,17,14,56,25.30
2015,08,17,14,57,25.20
2015,08,17,14,58,25.20
2015,08,17,14,59,25.20
2015,08,17,15,00,25.30
2015,08,17,15,01,25.40
2015,08,17,15,02,25.50
2015,08,17,15,03,25.60
2015,08,17,15,04,25.60
2015,08,17,15,05,25.70
2015,08,17,15,06,25.70
2015,08,17,15,07,25.80
2015,08,17,15,08,25.90
2015,08,17,15,09,25.90
2015,08,17,15,10,25.90
2015,08,17,15,11,26.00
2015,08,17,15,12,26.00
2015,08,17,15,13,26.00
2015,08,17,15,14,26.10
2015,08,17,15,15,26.20
2015,08,17,15,16,26.30
2015,08,17,15,17,26.30
2015,08,17,15,18,26.20
2015,08,17,15,19,26.10
2015,08,17,15,20,26.10
2015,08,17,15,21,26.10
2015,08,17,15,22,26.00
2015,08,17,15,23,26.00
2015,08,17,15,24,26.00
2015,08,17,15,25,26.00
2015,08,17,15,26,25.90
2015,08,17,15,27,25.90
2015,08,17,15,28,26.00
2015,08,17,15,29,26.00
2015,08,17,15,30,26.10
2015,08,17,15,31,26.30
2015,08,17,15,32,26.30
2015,08,17,15,33,26.30
2015,08,17,15,34,26.30
2015,08,17,15,35,26.30
2015,08,17,15,36,26.40
2015,08,17,15,37,26.50
2015,08,17,15,38,26.50
2015,08,17,15,39,26.40
2015,08,17,15,40,26.30
2015,08,17,15,41,26.20
2015,08,17,15,42,26.20
2015,08,17,15,43,26.30
2015,08,17,15,44,26.30
2015,08,17,15,45,26.30
2015,08,17,15,46,26.10
2015,08,17,15,47,26.00
2015,08,17,15,48,25.90
2015,08,17,15,49,25.90
2015,08,17,15,50,25.90
2015,08,17,15,51,26.00
2015,08,17,15,52,26.10
2015,08,17,15,53,26.20
2015,08,17,15,54,26.40
2015,08,17,15,55,26.40
2015,08,17,15,56,26.50
2015,08,17,15,57,26.40
2015,08,17,15,58,26.30
2015,08,17,15,59,26.10
2015,08,17,16,00,26.00
2015,08,17,16,01,25.90
2015,08,17,16,02,25.90
2015,08,17,16,03,26.00
2015,08,17,16,04,26.10
2015,08,17,16,05,26.20
2015,08,17,16,06,26.30
2015,08,17,16,07,26.30
2015,08,17,16,08,26.40
2015,08,17,16,09,26.40
2015,08,17,16,10,26.60
2015,08,17,16,11,26.60
2015,08,17,16,12,26.60
2015,08,17,16,13,26.70
2015,08,17,16,14,26.80
2015,08,17,16,15,26.90
2015,08,17,16,16,27.00
2015,08,17,16,17,27.10
2015,08,17,16,18,27.00
2015,08,17,16,19,26.90
2015,08,17,16,20,27.00
2015,08,17,16,21,27.10
2015,08,17,16,22,27.10
2015,08,17,16,23,27.20
2015,08,17,16,24,27.20
2015,08,17,16,25,27.20
2015,08,17,16,26,27.20
2015,08,17,16,27,27.10
2015,08,17,16,28,27.00
2015,08,17,16,29,26.90
2015,08,17,16,30,26.70
2015,08,17,16,31,26.70
2015,08,17,16,32,26.70
2015,08,17,16,33,26.80
2015,08,17,16,34,26.90
2015,08,17,16,35,27.00
2015,08,17,16,36,27.10
2015,08,17,16,37,27.10
2015,08,17,16,38,27.20
2015,08,17,16,39,27.20
2015,08,17,16,40,27.30
2015,08,17,16,41,27.30
2015,08,17,16,42,27.30
2015,08,17,16,43,27.20
2015,08,17,16,44,27.20
2015,08,17,16,45,27.20
2015,08,17,16,46,27.10
2015,08,17,16,47,27.10
2015,08,17,16,48,26.90
2015,08,17,16,49,26.90
2015,08,17,16,50,26.80
2015,08,17,16,51,26.70
2015,08,17,16,52,26.60
2015,08,17,16,53,26.50
2015,08,17,16,54,26.40
2015,08,17,16,55,26.40
2015,08,17,16,56,26.40
2015,08,17,16,57,26.50
2015,08,17,16,58,26.60
2015,08,17,16,59,26.60
2015,08,17,17,00,26.60
2015,08,17,17,01,26.60
2015,08,17,17,02,26.60
2015,08,17,17,03,26.70
2015,08,17,17,04,26.60
2015,08,17,17,05,26.60
2015,08,17,17,06,26.50
2015,08,17,17,07,26.30
2015,08,17,17,08,26.10
2015,08,17,17,09,25.90
2015,08,17,17,10,25.80
2015,08,17,17,11,25.70
2015,08,17,17,12,25.60
2015,08,17,17,13,25.40
2015,08,17,17,14,25.30
2015,08,17,17,15,25.20
2015,08,17,17,16,25.20
2015,08,17,17,17,25.20
2015,08,17,17,18,25.30
2015,08,17,17,19,25.30